Location: Hradec Kralove
(50.2170°N, 15.8330°E)
Time: 10:47:48
(UTC+01:00)

Vanguard 2 - Visible Passes

Search period start: 28 January 2023 00:00
Search period end: 07 February 2023 00:00
Orbit: 554 x 2930 km, 32.9° (Epoch: 27 January)

Date Brightness Start Highest point End Pass type
(mag) Time Alt. Az. Time Alt. Az. Time Alt. Az.
28 Jan 11.6 00:48:15 11° ESE 00:48:15 11° ESE 00:48:30 10° ESE visible
28 Jan 10.7 02:49:34 33° SSE 02:49:34 33° SSE 02:57:12 10° SE visible
28 Jan 10.7 04:50:53 25° SW 04:53:53 26° SSW 05:03:13 10° SSE visible
29 Jan 11.5 01:04:00 13° ESE 01:04:00 13° ESE 01:05:15 10° ESE visible
29 Jan 10.7 03:05:20 34° SSE 03:05:20 34° SSE 03:13:33 10° SE visible
29 Jan 10.8 05:06:38 21° SW 05:10:02 22° SW 05:18:42 10° S visible
30 Jan 11.4 01:19:47 16° ESE 01:19:47 16° ESE 01:21:53 10° ESE visible
30 Jan 10.7 03:21:07 33° S 03:21:07 33° S 03:29:43 10° SE visible
30 Jan 11.0 05:22:26 17° WSW 05:26:05 18° SW 05:33:42 10° S visible
31 Jan 11.4 01:35:37 18° SE 01:35:37 18° SE 01:38:25 10° ESE visible
31 Jan 10.7 03:36:56 30° S 03:36:56 30° S 03:45:43 10° SSE visible
31 Jan 11.2 05:38:15 12° WSW 05:42:02 14° SW 05:47:48 10° SSW visible
31 Jan 11.4 21:09:53 10° S 21:10:46 12° S 21:10:46 12° S visible
01 Feb 11.3 01:51:29 19° SE 01:51:29 19° SE 01:54:51 10° SE visible
01 Feb 10.8 03:52:48 27° SSW 03:52:48 27° SSW 04:01:27 10° SSE visible
01 Feb 11.3 21:25:16 10° SSW 21:26:52 14° SSW 21:26:52 14° SSW visible
02 Feb12.000:06:03ESE00:06:03ESE23:28:12WSWvisible
02 Feb 11.3 02:07:23 20° SE 02:07:23 20° SE 02:11:06 10° SE visible
02 Feb 11.0 04:08:43 23° SSW 04:08:43 23° SSW 04:16:51 10° S visible
02 Feb 11.2 19:38:41 10° SSE 19:41:36 13° SSE 19:41:36 13° SSE visible
02 Feb 11.3 21:40:59 10° SSW 21:42:56 15° SSW 21:42:56 15° SSW visible
03 Feb 11.3 02:23:20 20° SSE 02:23:20 20° SSE 02:27:13 10° SE visible
03 Feb 11.1 04:24:40 19° SSW 04:24:40 19° SSW 04:31:44 10° S visible
03 Feb 11.0 19:52:48 10° S 19:57:40 17° SSE 19:57:40 17° SSE visible
03 Feb 11.3 21:56:56 10° SW 21:59:00 16° SSW 21:59:00 16° SSW visible
04 Feb 11.3 02:39:19 19° SSE 02:39:19 19° SSE 02:43:07 10° SSE visible
04 Feb 11.3 04:40:39 15° SW 04:40:39 15° SW 04:45:46 10° SSW visible
04 Feb 10.8 20:07:47 10° S 20:13:42 21° SSE 20:13:42 21° SSE visible
04 Feb 11.3 22:13:06 10° SW 22:15:02 16° SW 22:15:02 16° SW visible
05 Feb 11.3 02:55:20 17° S 02:55:20 17° S 02:58:43 10° SSE visible
05 Feb 11.4 04:56:40 10° SW 04:56:40 10° SW 04:57:13 10° SW visible
05 Feb 10.7 20:23:14 10° SSW 20:29:42 25° SSE 20:29:42 25° SSE visible
05 Feb 11.3 22:29:23 10° SW 22:31:02 15° SW 22:31:02 15° SW visible
06 Feb 11.4 03:11:22 15° S 03:11:22 15° S 03:13:57 10° S visible
06 Feb 11.0 18:37:40 10° SSE 18:41:39 12° SE 18:44:21 11° ESE visible
06 Feb 10.6 20:39:00 10° SSW 20:45:40 28° S 20:45:40 28° S visible
06 Feb 11.4 22:45:48 10° WSW 22:47:00 14° WSW 22:47:00 14° WSW visible
